Regional Weather Roundup
Issued by NWS

Home | Current Version | Previous Version | Text Only | Print | Product List | Glossary Off
Versions: 1 2 3 4 5 6 7 8 9 10 11 12 13 14 15 16 17 18 19 20 21 22 23 24 25 26 27 28 29 30 31 32 33 34 35 36 37 38 39 40 41 42 43 44 45 46 47 48 49 50

000
ASUS45 KSLC 021810
RWRUT

UTAH REGIONAL WEATHER ROUNDUP
NATIONAL WEATHER SERVICE SALT LAKE CITY UT
1200 PM MDT SUN AUG 02 2015

UTZ001>011-023>025-021900-

NORTHERN UTAH

CITY           SKY/WX    TMP DP  RH WIND       PRES   REMARKS
BRIGHAM CITY   MOSUNNY   85  31  14 SW7       30.01F
HILL AFB       MOSUNNY   85  41  21 VRB5      30.04F
LOGAN          SUNNY     81  40  23 VRB6      30.03F
OGDEN          MOSUNNY   86  38  18 W5        30.02F
PROVO AIRPORT  MOSUNNY   81  48  32 CALM      30.04F
SALT LAKE CITY PTSUNNY   89  39  17 W7        29.99F
VERNAL         SUNNY     82  47  29 VRB5      30.11F
WENDOVER       CLOUDY    88  39  18 E6        30.01F
HEBER CITY     MOSUNNY   77  37  24 CALM      30.11F
WEST JORDAN    SUNNY     88  45  22 CALM      30.03F

$$

UTZ012>022-026-027-021900-

SOUTHERN/CENTRAL UTAH

CITY           SKY/WX    TMP DP  RH WIND       PRES   REMARKS
BLANDING       CLOUDY    66  59  77 E5        30.29S
BRYCE CANYON   CLOUDY    62  52  69 SE15      30.33R
CEDAR CITY     CLOUDY    73  49  42 SW14      30.17R
DELTA          PTSUNNY   84  39  20 W3        30.05F
HANKSVILLE     CLOUDY    82  54  36 SE7       30.08F
MILFORD        CLOUDY    79  47  32 SW22      30.09F
MOAB/CYNLANDS  PTSUNNY   76  55  48 SE15      30.10S
PRICE          MOSUNNY   81  50  33 SE8G16    30.16F
ST GEORGE      PTCLDY    82  55  39 CALM      30.03S
KANAB          PTSUNNY   77  54  44 NE5       30.20R

$$

REGIONAL REPORTS     COLORADO/ARIZONA

CITY           SKY/WX    TMP DP  RH WIND       PRES   REMARKS
CRAIG, CO      MOSUNNY   85  47  26 NW7       30.18F
GRAND JUNCTION CLOUDY    75  54  47 E10       30.13F
RIFLE          CLOUDY    75  48  38 NW7       30.17F
MONTROSE       CLOUDY    71  53  52 CALM      30.22F
CORTEZ         SUNNY     72  60  66 CALM      30.21F
PAGE, AZ       LGT RAIN  66  64  93 N8        30.12F
GRAND CANYON   PTSUNNY   76  52  43 W8        30.23F
KINGMAN        SUNNY     91  49  23 SW10G16   30.03S
FLAGSTAFF      PTSUNNY   71  52  50 W8        30.27F

$$

REGIONAL REPORTS    NEVADA/IDAHO/WYOMING

CITY           SKY/WX    TMP DP  RH WIND       PRES   REMARKS
LAS VEGAS, NV  MOSUNNY   92  53  26 VRB3      29.90F
ELY            CLOUDY    79  41  25 W9        30.18F
ELKO           CLOUDY    82  46  28 SW8       30.11F
POCATELLO, ID  SUNNY     86  43  22 N7        30.04F
BURLEY         MOSUNNY   84  40  21 CALM      30.01F
EVANSTON, WY   MOSUNNY   82  30  15 N8        30.23F
ROCK SPRINGS   SUNNY     79  35  20 E7        30.21F
KEMMERER       SUNNY    N/A N/A N/A CALM      30.25F

$$


USA.gov is the U.S. government's official web portal to all federal, state and local government web resources and services.